DateTime,Index
2005090606,0.0
2005090612,0.0
2005090618,0.0
2005090700,0.0
2005090706,1225.0
2005090712,1600.0
2005090718,2025.0
2005090800,2025.0
2005090806,2500.0
2005090812,3025.0
2005090818,3600.0
2005090900,4225.0
2005090906,3025.0
2005090912,3025.0
2005090918,4225.0
2005091000,3600.0
2005091006,3600.0
2005091012,4225.0
2005091018,4900.0
2005091100,4900.0
2005091106,5625.0
2005091112,4900.0
2005091118,4225.0
2005091200,3600.0
2005091206,3600.0
2005091212,3025.0
2005091218,3600.0
2005091300,3600.0
2005091306,3600.0
2005091312,3600.0
2005091318,3600.0
2005091400,4225.0
2005091406,4900.0
2005091412,5625.0
2005091418,5625.0
2005091500,5625.0
2005091506,4900.0
2005091512,4225.0
2005091518,4225.0
2005091600,3600.0
2005091606,3025.0
2005091612,2500.0
2005091618,3025.0
2005091700,3025.0
2005091706,2500.0
2005091712,2500.0
2005091718,2500.0
2005091800,2025.0
2005091806,2025.0
2005091812,2025.0
2005091818,2025.0
2005091900,2025.0
2005091906,2025.0
2005091912,2025.0
2005091918,2025.0
2005092000,2025.0
2005092006,1600.0
2005092012,1600.0
2005092018,1600.0
2005092100,1600.0
2005092106,1225.0
2005092112,1225.0
2005092118,1225.0
2005092200,1225.0
2005092206,1225.0
2005092212,1225.0
2005092218,0.0
2005092300,0.0
